Weather History for KMDZ - July, 2013

Change the Weather History Date:

Tuesday, July 16, 2013

  Actual Average Record
Temperature  
Mean Temperature 80 °F -  
Max Temperature 89 °F 79 °F 95 °F (2012)
Min Temperature 71 °F 57 °F 42 °F (2014)
Cooling Degree Days 15    
Growing Degree Days 30 (Base 50)    
Moisture  
Dew Point 72 °F    
Average Humidity 80    
Maximum Humidity 100    
Minimum Humidity 58    
Precipitation  
Precipitation 0.00 in - - ()
Sea Level Pressure  
Sea Level Pressure 30.25 in    
Wind  
Wind Speed 6 mph (SSW)    
Max Wind Speed 13 mph    
Max Gust Speed 18 mph    
Visibility 9 miles    
Events      
Averages and records for this station are not official NWS values.
T = Trace of Precipitation, MM = Missing Value Source: NWS Daily Summary

Daily Weather History Graph

Daily Weather History Graph

Search for Another Location

Airport or City:

Trip Planner

Search our weather history database for the weather conditions in past years. The results will help you decide how hot, cold, wet, or windy it might be!

Date:

Astronomy

Jul. 16, 2013 Rise Set
Actual Time 5:29 AM CDT 8:44 PM CDT
Civil Twilight 4:53 AM CDT 9:20 PM CDT
Nautical Twilight 4:07 AM CDT 10:06 PM CDT
Astronomical Twilight 3:09 AM CDT 11:03 PM CDT
Moon 2:19 PM CDT (7/16) 12:07 AM CDT (7/16)
Length of Visible Light 16h 26m
Length of Day
15h 14m
First Quarter, 56% of the Moon is Illuminated
Jul 16
First Quarter
Jul 22
Full
Jul 29
Last Quarter
Aug 6
New
Aug 14
First Quarter

Hourly Weather History & Observations

Time (CDT) Temp. Heat Index Dew Point Humidity Pressure Visibility Wind Dir Wind Speed Gust Speed Precip Events Conditions
12:15 AM 75.2 °F - 71.6 °F 89% 30.25 in 10.0 mi SE 4.6 mph - N/A   Clear
12:35 AM 75.2 °F - 71.6 °F 89% 30.25 in 10.0 mi SE 5.8 mph - N/A   Clear
12:55 AM 75.2 °F - 71.6 °F 89% 30.25 in 10.0 mi SSE 5.8 mph - N/A   Clear
1:15 AM 75.2 °F - 71.6 °F 89% 30.26 in 7.0 mi SSE 5.8 mph - N/A   Clear
1:35 AM 73.4 °F - 71.6 °F 94% 30.26 in 7.0 mi SSE 5.8 mph - N/A   Clear
1:55 AM 73.4 °F - 71.6 °F 94% 30.26 in 7.0 mi SSE 4.6 mph - N/A   Clear
2:15 AM 73.4 °F - 71.6 °F 94% 30.26 in 7.0 mi SSE 4.6 mph - N/A   Clear
2:35 AM 73.4 °F - 71.6 °F 94% 30.25 in 7.0 mi SSE 4.6 mph - N/A   Scattered Clouds
2:55 AM 73.4 °F - 71.6 °F 94% 30.26 in 5.0 mi SSE 4.6 mph - N/A   Scattered Clouds
3:15 AM 73.4 °F - 71.6 °F 94% 30.26 in 5.0 mi SSE 3.5 mph - N/A   Scattered Clouds
3:35 AM 73.4 °F - 71.6 °F 94% 30.25 in 5.0 mi SSE 3.5 mph - N/A   Clear
3:55 AM 73.4 °F - 71.6 °F 94% 30.25 in 5.0 mi SSE 4.6 mph - N/A   Clear
4:15 AM 71.6 °F - 71.6 °F 100% 30.25 in 4.0 mi South 3.5 mph - N/A   Clear
4:35 AM 71.6 °F - 71.6 °F 100% 30.25 in 4.0 mi South 3.5 mph - N/A   Clear
4:55 AM 71.6 °F - 69.8 °F 94% 30.26 in 4.0 mi Calm Calm - N/A   Clear
5:15 AM 71.6 °F - 69.8 °F 94% 30.26 in 5.0 mi Calm Calm - N/A   Clear
5:35 AM 71.6 °F - 69.8 °F 94% 30.26 in 4.0 mi Calm Calm - N/A   Clear
5:55 AM 71.6 °F - 69.8 °F 94% 30.26 in 2.5 mi Calm Calm - N/A   Clear
6:15 AM 71.6 °F - 69.8 °F 94% 30.26 in 3.0 mi South 4.6 mph - N/A   Clear
6:35 AM 73.4 °F - 71.6 °F 94% 30.26 in 4.0 mi South 3.5 mph - N/A   Clear
6:55 AM 73.4 °F - 71.6 °F 94% 30.26 in 5.0 mi SSW 4.6 mph - N/A   Clear
7:15 AM 75.2 °F - 73.4 °F 94% 30.26 in 7.0 mi SSW 6.9 mph - N/A   Clear
7:35 AM 77.0 °F - 73.4 °F 89% 30.27 in 10.0 mi SW 8.1 mph - N/A   Clear
7:55 AM 78.8 °F - 73.4 °F 83% 30.27 in 10.0 mi SW 8.1 mph - N/A   Clear
8:15 AM 78.8 °F - 73.4 °F 83% 30.28 in 10.0 mi SW 6.9 mph - N/A   Clear
8:35 AM 80.6 °F 85.4 °F 73.4 °F 79% 30.28 in 10.0 mi SW 9.2 mph - N/A   Clear
8:55 AM 80.6 °F 85.4 °F 73.4 °F 79% 30.28 in 10.0 mi SW 10.4 mph - N/A   Clear
9:15 AM 80.6 °F 85.4 °F 73.4 °F 79% 30.28 in 10.0 mi SW 9.2 mph - N/A   Clear
9:35 AM 82.4 °F 88.2 °F 73.4 °F 74% 30.28 in 10.0 mi WSW 9.2 mph - N/A   Scattered Clouds
9:55 AM 82.4 °F 88.2 °F 73.4 °F 74% 30.27 in 10.0 mi SW 9.2 mph - N/A   Scattered Clouds
10:15 AM 82.4 °F 88.2 °F 73.4 °F 74% 30.27 in 10.0 mi WSW 6.9 mph - N/A   Scattered Clouds
10:55 AM 84.2 °F 90.9 °F 73.4 °F 70% 30.27 in 10.0 mi West 10.4 mph - N/A   Scattered Clouds
11:15 AM 84.2 °F 90.9 °F 73.4 °F 70% 30.27 in 10.0 mi SW 11.5 mph - N/A   Scattered Clouds
11:35 AM 84.2 °F 90.9 °F 73.4 °F 70% 30.26 in 10.0 mi WSW 10.4 mph 17.3 mph N/A   Scattered Clouds
11:55 AM 84.2 °F 90.9 °F 73.4 °F 70% 30.26 in 10.0 mi West 9.2 mph - N/A   Mostly Cloudy
12:15 PM 86.0 °F 93.4 °F 73.4 °F 66% 30.26 in 10.0 mi WSW 9.2 mph - N/A   Scattered Clouds
12:35 PM 86.0 °F 93.4 °F 73.4 °F 66% 30.26 in 10.0 mi WSW 6.9 mph - N/A   Scattered Clouds
12:55 PM 86.0 °F 93.4 °F 73.4 °F 66% 30.26 in 10.0 mi WSW 8.1 mph - N/A   Scattered Clouds
1:15 PM 87.8 °F 95.6 °F 73.4 °F 62% 30.25 in 10.0 mi SW 10.4 mph - N/A   Scattered Clouds
1:35 PM 86.0 °F 93.4 °F 73.4 °F 66% 30.25 in 10.0 mi SW 9.2 mph - N/A   Scattered Clouds
1:55 PM 87.8 °F 95.6 °F 73.4 °F 62% 30.25 in 10.0 mi WSW 11.5 mph - N/A   Clear
2:15 PM 87.8 °F 95.6 °F 73.4 °F 62% 30.24 in 10.0 mi SW 10.4 mph - N/A   Scattered Clouds
2:35 PM 89.6 °F 98.2 °F 73.4 °F 59% 30.24 in 10.0 mi SW 12.7 mph - N/A   Scattered Clouds
3:55 PM 86.0 °F 93.4 °F 73.4 °F 66% 30.23 in 10.0 mi SW 11.5 mph - N/A   Scattered Clouds
4:15 PM 87.8 °F 95.6 °F 73.4 °F 62% 30.23 in 10.0 mi SW 12.7 mph 16.1 mph N/A   Scattered Clouds
4:35 PM 87.8 °F 95.6 °F 73.4 °F 62% 30.22 in 10.0 mi SSW 11.5 mph 17.3 mph N/A   Scattered Clouds
4:55 PM 87.8 °F 93.8 °F 71.6 °F 58% 30.22 in 10.0 mi SW 12.7 mph 17.3 mph N/A   Scattered Clouds
5:15 PM 87.8 °F 93.8 °F 71.6 °F 58% 30.22 in 10.0 mi WSW 12.7 mph 17.3 mph N/A   Clear
5:35 PM 87.8 °F 93.8 °F 71.6 °F 58% 30.22 in 10.0 mi SW 11.5 mph 18.4 mph N/A   Clear
5:55 PM 86.0 °F 91.8 °F 71.6 °F 62% 30.22 in 10.0 mi SW 10.4 mph - N/A   Clear
6:15 PM 86.0 °F 93.4 °F 73.4 °F 66% 30.22 in 10.0 mi SW 10.4 mph - N/A   Clear
6:35 PM 84.2 °F 90.9 °F 73.4 °F 70% 30.22 in 10.0 mi SW 10.4 mph 16.1 mph N/A   Scattered Clouds
6:55 PM 84.2 °F 90.9 °F 73.4 °F 70% 30.23 in 10.0 mi SSW 10.4 mph - N/A   Scattered Clouds
7:15 PM 82.4 °F 88.2 °F 73.4 °F 74% 30.23 in 10.0 mi SSW 6.9 mph - N/A   Clear
7:35 PM 82.4 °F 88.2 °F 73.4 °F 74% 30.23 in 10.0 mi SSW 6.9 mph - N/A   Scattered Clouds
7:55 PM 82.4 °F 88.2 °F 73.4 °F 74% 30.22 in 10.0 mi SSW 6.9 mph - N/A   Scattered Clouds
8:15 PM 82.4 °F 88.2 °F 73.4 °F 74% 30.22 in 10.0 mi SSW 6.9 mph - N/A   Scattered Clouds
8:35 PM 80.6 °F 85.4 °F 73.4 °F 79% 30.22 in 10.0 mi SW 8.1 mph - N/A   Scattered Clouds
8:55 PM 80.6 °F 85.4 °F 73.4 °F 79% 30.22 in 10.0 mi SSW 5.8 mph - N/A   Scattered Clouds
9:15 PM 80.6 °F 85.4 °F 73.4 °F 79% 30.23 in 10.0 mi SSW 6.9 mph - N/A   Clear
9:35 PM 80.6 °F 85.4 °F 73.4 °F 79% 30.24 in 10.0 mi SW 6.9 mph - N/A   Clear
9:55 PM 78.8 °F - 73.4 °F 83% 30.25 in 10.0 mi WSW 4.6 mph - N/A   Clear
10:15 PM 77.0 °F - 73.4 °F 89% 30.26 in 10.0 mi WSW 3.5 mph - N/A   Clear
10:35 PM 77.0 °F - 71.6 °F 83% 30.26 in 10.0 mi SW 3.5 mph - N/A   Clear
10:55 PM 75.2 °F - 71.6 °F 89% 30.26 in 10.0 mi SW 4.6 mph - N/A   Clear
11:15 PM 75.2 °F - 71.6 °F 89% 30.26 in 10.0 mi SW 4.6 mph - N/A   Clear
11:35 PM 75.2 °F - 71.6 °F 89% 30.26 in 10.0 mi SW 4.6 mph - N/A   Clear
11:55 PM 75.2 °F - 71.6 °F 89% 30.26 in 10.0 mi SW 4.6 mph - N/A   Clear